TimeCST,TemperatureF,Dew PointF,Humidity,Sea Level PressureIn,VisibilityMPH,Wind Direction,Wind SpeedMPH,Gust SpeedMPH,PrecipitationIn,Events,Conditions,WindDirDegrees,DateUTC
12:53 AM,3.9,-2.0,76,30.18,7.0,Calm,Calm,-,N/A,,Clear,0,2012-12-14 06:53:00
1:53 AM,5.0,-0.9,76,30.18,7.0,Calm,Calm,-,N/A,,Clear,0,2012-12-14 07:53:00
2:53 AM,3.9,-2.0,76,30.17,7.0,Calm,Calm,-,N/A,,Clear,0,2012-12-14 08:53:00
3:53 AM,3.0,-2.9,76,30.16,8.0,Calm,Calm,-,N/A,,Clear,0,2012-12-14 09:53:00
4:53 AM,3.9,-2.9,73,30.15,8.0,Calm,Calm,-,N/A,,Clear,0,2012-12-14 10:53:00
6:53 AM,3.9,-2.0,76,30.15,8.0,Calm,Calm,-,N/A,,Clear,0,2012-12-14 12:53:00
7:53 AM,3.0,-2.9,76,30.14,9.0,Calm,Calm,-,N/A,,Clear,0,2012-12-14 13:53:00
8:53 AM,7.0,1.9,80,30.14,8.0,Calm,Calm,-,N/A,,Clear,0,2012-12-14 14:53:00
9:53 AM,15.1,12.0,88,30.14,7.0,Calm,Calm,-,N/A,,Clear,0,2012-12-14 15:53:00
10:53 AM,23.0,18.0,81,30.12,5.0,ESE,4.6,-,N/A,,Haze,120,2012-12-14 16:53:00
11:53 AM,24.1,18.0,77,30.09,5.0,East,4.6,-,N/A,,Haze,100,2012-12-14 17:53:00
12:53 PM,26.1,18.0,71,30.07,6.0,ESE,5.8,-,N/A,,Haze,120,2012-12-14 18:53:00
1:53 PM,28.0,19.0,69,30.03,7.0,Variable,3.5,-,N/A,,Clear,0,2012-12-14 19:53:00
2:53 PM,28.0,19.0,69,30.01,7.0,SE,11.5,16.1,N/A,,Clear,130,2012-12-14 20:53:00
3:53 PM,28.0,19.9,72,29.99,6.0,Variable,4.6,-,N/A,,Haze,0,2012-12-14 21:53:00
4:53 PM,27.0,19.9,75,29.98,7.0,East,3.5,-,N/A,,Clear,100,2012-12-14 22:53:00
5:53 PM,27.0,21.0,78,29.95,7.0,East,6.9,-,N/A,,Clear,100,2012-12-14 23:53:00
6:53 PM,27.0,21.0,78,29.95,7.0,Variable,6.9,-,N/A,,Clear,0,2012-12-15 00:53:00
7:53 PM,26.1,19.9,78,29.95,7.0,Variable,5.8,-,N/A,,Clear,0,2012-12-15 01:53:00
8:53 PM,27.0,21.0,78,29.92,7.0,Variable,5.8,-,N/A,,Clear,0,2012-12-15 02:53:00
9:53 PM,28.0,21.0,75,29.90,7.0,East,5.8,-,N/A,,Clear,100,2012-12-15 03:53:00
10:53 PM,28.0,21.9,78,29.86,7.0,ESE,10.4,17.3,N/A,,Clear,120,2012-12-15 04:53:00
11:53 PM,28.9,21.9,75,29.84,7.0,Variable,3.5,-,N/A,,Clear,0,2012-12-15 05:53:00